San Bernardino, CA

3:03 PM PDT on July 23, 2019 (GMT -0700)
San Bernardino International

Weather History for KSBD - May, 2019

Change the Weather History Date:

Monday, May 20, 2019

  Actual Average Record
Temperature  
Mean Temperature 59 °F -  
Max Temperature 66 °F 79 °F 98 °F (2012)
Min Temperature 52 °F 52 °F 52 °F (2019)
Degree Days  
Heating Degree Days 6    
Growing Degree Days 9 (Base 50)    
Moisture  
Dew Point 45 °F    
Average Humidity 66    
Maximum Humidity 82    
Minimum Humidity 35    
Precipitation  
Precipitation 0.02 in - - ()
Sea Level Pressure  
Sea Level Pressure 29.90 in    
Wind  
Wind Speed 5 mph (WSW)    
Max Wind Speed 12 mph    
Max Gust Speed 20 mph    
Visibility 8 miles    
Events Rain    
Averages and records for this station are not official NWS values.
T = Trace of Precipitation, MM = Missing Value Source: NWS Daily Summary

Daily Weather History Graph

Daily Weather History Graph

Search for Another Location

Airport or City:

Astronomy

May. 20, 2019 Rise Set
Actual Time 5:44 AM PDT 7:47 PM PDT
Civil Twilight 5:16 AM PDT 8:15 PM PDT
Nautical Twilight 4:41 AM PDT 8:49 PM PDT
Astronomical Twilight 4:05 AM PDT 9:26 PM PDT
Moon 9:51 PM PDT (5/20) 7:16 AM PDT (5/20)
Length of Visible Light 14h 59m
Length of Day
14h 03m
Waning Gibbous, 96% of the Moon is Illuminated
May 20
Waning Gibbous
May 26
Last Quarter
Jun 3
New
Jun 9
First Quarter
Jun 17
Full

Hourly Weather History & Observations

Time (PDT) Temp. Dew Point Humidity Pressure Visibility Wind Dir Wind Speed Gust Speed Precip Events Conditions
12:00 AM 54.0 °F 47.5 °F 79% 29.88 in 5.0 mi South 4.6 mph - N/A Rain Light Rain
12:20 AM 53.8 °F 48.0 °F 81% 29.87 in 7.0 mi South 3.5 mph - 0.03 in Rain Rain
12:40 AM 53.6 °F 47.8 °F 81% 29.86 in 5.0 mi Calm Calm - 0.07 in Rain Light Rain
1:00 AM 53.6 °F 48.2 °F 82% 29.86 in 7.0 mi Calm Calm - N/A Rain Rain
1:20 AM 53.6 °F 48.2 °F 82% 29.86 in 10.0 mi WSW 10.4 mph 19.6 mph 0.02 in Rain Light Rain
1:40 AM 53.1 °F 47.7 °F 82% 29.86 in 10.0 mi SW 9.2 mph 13.8 mph 0.02 in   Mostly Cloudy
2:00 AM 53.6 °F 48.2 °F 82% 29.86 in 10.0 mi SSW 5.8 mph - N/A   Overcast
2:20 AM 53.2 °F 47.8 °F 82% 29.85 in 10.0 mi SW 6.9 mph - N/A   Overcast
2:40 AM 53.1 °F 47.7 °F 82% 29.85 in 10.0 mi WSW 6.9 mph - N/A   Overcast
3:00 AM 53.1 °F 47.7 °F 82% 29.85 in 10.0 mi SW 4.6 mph - N/A   Overcast
3:20 AM 53.1 °F 47.5 °F 81% 29.85 in 10.0 mi WSW 5.8 mph - N/A   Overcast
3:40 AM 52.9 °F 47.3 °F 81% 29.85 in 10.0 mi Calm Calm - N/A   Overcast
4:00 AM 52.9 °F 47.3 °F 81% 29.85 in 10.0 mi SW 8.1 mph - N/A   Overcast
4:20 AM 52.9 °F 47.3 °F 81% 29.85 in 10.0 mi West 5.8 mph - N/A   Overcast
4:40 AM 52.9 °F 47.3 °F 81% 29.85 in 10.0 mi WSW 5.8 mph - N/A   Overcast
5:00 AM 52.9 °F 47.3 °F 81% 29.85 in 10.0 mi SW 3.5 mph - N/A   Overcast
5:20 AM 52.9 °F 47.3 °F 81% 29.85 in 10.0 mi Calm Calm - N/A   Overcast
5:40 AM 52.9 °F 47.3 °F 81% 29.85 in 10.0 mi SW 4.6 mph - N/A   Overcast
7:00 AM 53.6 °F 46.4 °F 77% 29.87 in 7.0 mi Calm Calm - N/A   Mostly Cloudy
7:45 AM 53.6 °F 46.4 °F 77% 29.88 in 7.0 mi Calm Calm - N/A   Mostly Cloudy
8:45 AM 57.2 °F 46.4 °F 67% 29.90 in 7.0 mi Calm Calm - N/A   Mostly Cloudy
9:50 AM 59.0 °F 46.4 °F 63% 29.92 in 7.0 mi SSW 3.5 mph - N/A   Mostly Cloudy
10:50 AM 62.6 °F 41.0 °F 45% 29.91 in 7.0 mi SW 4.6 mph - N/A   Mostly Cloudy
11:50 AM 64.4 °F 39.2 °F 40% 29.92 in 7.0 mi ESE 5.8 mph - N/A   Mostly Cloudy
12:50 PM 66.2 °F 37.4 °F 35% 29.92 in 7.0 mi West 4.6 mph - N/A   Mostly Cloudy
1:50 PM 66.2 °F 39.2 °F 37% 29.92 in 7.0 mi Calm Calm - N/A   Mostly Cloudy
2:50 PM 66.2 °F 37.4 °F 35% 29.91 in 7.0 mi West 4.6 mph - N/A   Overcast
3:50 PM 66.2 °F 41.0 °F 40% 29.91 in 7.0 mi West 8.1 mph - N/A   Overcast
4:50 PM 66.2 °F 42.8 °F 43% 29.91 in 7.0 mi West 11.5 mph - N/A   Overcast
5:50 PM 66.2 °F 41.0 °F 40% 29.91 in 7.0 mi West 9.2 mph - N/A   Mostly Cloudy
8:50 PM 59.0 °F 44.6 °F 59% 29.95 in 6.0 mi WSW 8.1 mph - N/A   Haze
9:40 PM 59.7 °F 43.9 °F 56% 29.97 in 10.0 mi WSW 8.1 mph - N/A   Overcast
10:00 PM 59.0 °F 43.9 °F 57% 29.98 in 10.0 mi WSW 9.2 mph - N/A   Overcast
10:20 PM 59.0 °F 43.9 °F 57% 29.99 in 10.0 mi West 8.1 mph - N/A   Overcast
10:40 PM 59.0 °F 43.7 °F 57% 29.99 in 10.0 mi West 4.6 mph - N/A   Overcast
11:00 PM 58.6 °F 43.7 °F 58% 29.99 in 10.0 mi West 5.8 mph - N/A   Overcast
11:20 PM 58.1 °F 42.6 °F 56% 29.98 in 10.0 mi WNW 5.8 mph - N/A   Overcast
11:40 PM 58.5 °F 42.1 °F 55% 29.98 in 10.0 mi WNW 5.8 mph - N/A   Overcast